SL-14 DEB, 45655

Orbit data source: Space-Track

SL-14 DEB, 45655 is space debris in LEO originally from a launch on Thu, 15 Aug 1991 UTC launched from the Plesetsk Missile And Space Complex (PKMTR). Debris objects in space refer to the collection of defunct objects orbiting the Earth. Examples of debris include non-operational satellites, rocket bodies, and fragments generated from explosions, collisions, or faulty payload assembly.

Loading next visibility...
Identifier
45655, 1991-056CZ
Orbit
LEO
Country
Flag of CISCIS
Related business
Manufacturer
Unknown
Mission
Spacecraft
Bus & Motor
Unknown
Mass
Unknown
Launch date (UTC)
1991-08-15 (34 years ago)
Launch vehicle
Unknown
Launch site
Plesetsk Missile And Space Complex (PKMTR)
Object type
Payload
Rocket body
Debris
Shape & HBR
Unknown shape, 0.1 m
Radar Cross Section
Small (<0.1 m²)

Expand to show TLE details & history
Last TLE update: 3 days ago

TLE from 3 days ago
0 SL-14 DEB
1 45655U 91056CZ  25284.20537328  .00001007  00000-0  32510-2 0  9998
2 45655  82.5436 359.0993 0101290 318.5087  40.8366 12.99618223268497
Epoch: 2025-10-11T04:55Z
TLE epoch observation values (Epoch: 2025-10-11T04:55:44.251Z)
Latitude
-0.00005°
Longitude
-94.87528°
Altitude
1,208.137 km
Speed
7.278 km/s
True Right ascension
23h 56m 23s
True Declination
0° 00' 00"
Sunlit
Object was in full shadow at epoch
Visualization orbit readout
Latitude
Unknown
Longitude
Unknown
Altitude
Unknown
Speed
Unknown
Apparent Right ascension
Unknown
Apparent Declination
Unknown
Sunlit
N/A
Visualization observer readout
Local Sidereal Time
02:54:07
Azimuth
Unknown
Elevation
Unknown
Doppler factor
Unknown
Orbital elements
Apogee altitude
1,338.231 km
Perigee altitude
1,183.48 km
Semi-major axis
7,638.992 km
Eccentricity
0.01013
Inclination
82.5436°
RAAN
359.0993°
Arg. of periapsis
318.5087°
True anomaly
41.6029°
Mean anomaly
40.8366°
Eccentric anomaly
41.21901°
Mean motion
3.25079 °/min
Orbital period
110.74 mins
BSTAR
0.003251
Loading maneuver chart data...
Computing Atmospheric mass density...
Loading historical data...
Loading historical data...
Loading historical data...
Loading historical data...
Loading historical data...
Loading historical data...
Loading historical data...

Documentation

Showing up to 5 results
|